This is the latest recevied weather packets stored in our database for station/object NY3Q. If no packets are shown the sender has not sent any weather packets the latest 10 day(s).
| Time | Temp. | Humidity | Pressure | Rain* | Wind** | Luminosity | Snow |
|---|---|---|---|---|---|---|---|
| 1788612764 | 28.33° C | 95% | 1014.8 hPa | 0 mm | - | 147 W/m² | - |
| 1788612461 | 27.78° C | 95% | 1015 hPa | 0 mm | - | 134 W/m² | - |
| 1788612157 | 27.78° C | 96% | 1014.9 hPa | 0 mm | - | 119 W/m² | - |
| 1788611852 | 27.22° C | 97% | 1014.9 hPa | 0 mm | - | 85 W/m² | - |
| 1788611549 | 27.22° C | 96% | 1014.7 hPa | 0 mm | - | 87 W/m² | - |
| 1788611249 | 26.67° C | 97% | 1014.6 hPa | 0 mm | - | 78 W/m² | - |
| 1788610948 | 26.11° C | 97% | 1014.7 hPa | 0 mm | - | 72 W/m² | - |
| 1788610644 | 26.11° C | 97% | 1014.6 hPa | 0 mm | - | 71 W/m² | - |
| 1788610340 | 25.56° C | 97% | 1014.8 hPa | 0 mm | - | 55 W/m² | - |
| 1788610039 | 25.56° C | 97% | 1014.6 hPa | 0 mm | - | 49 W/m² | - |
| 1788609734 | 25° C | 97% | 1014.4 hPa | 0 mm | - | 41 W/m² | - |
| 1788609434 | 24.44° C | 97% | 1014.3 hPa | 0 mm | - | 20 W/m² | - |
| 1788609129 | 24.44° C | 97% | 1014.2 hPa | 0 mm | - | 17 W/m² | - |
| 1788608828 | 24.44° C | 97% | 1014.2 hPa | 0 mm | - | 15 W/m² | - |
| 1788608521 | 24.44° C | 97% | 1014.1 hPa | 0 mm | - | 14 W/m² | - |
| 1788608221 | 24.44° C | 97% | 1014.1 hPa | 0 mm | - | 13 W/m² | - |
| 1788607917 | 24.44° C | 97% | 1014 hPa | 0 mm | - | 11 W/m² | - |
| 1788607616 | 24.44° C | 97% | 1014 hPa | 0 mm | - | 7 W/m² | - |
| 1788607312 | 24.44° C | 97% | 1013.9 hPa | 0 mm | - | 5 W/m² | - |
| 1788607012 | 24.44° C | 97% | 1013.9 hPa | 0 mm | - | 4 W/m² | - |
| 1788606711 | 24.44° C | 97% | 1014.1 hPa | 0 mm | - | 2 W/m² | - |
| 1788606410 | 24.44° C | 97% | 1013.9 hPa | 0 mm | - | 2 W/m² | - |
| 1788606105 | 24.44° C | 97% | 1013.9 hPa | 0 mm | - | 1 W/m² | - |
| 1788605801 | 24.44° C | 97% | 1013.7 hPa | 0 mm | - | 0 W/m² | - |
| 1788605499 | 24.44° C | 97% | 1013.7 hPa | 0 mm | - | 0 W/m² | - |
* Rain latest hour (hover to see other rain measurements)
** Current wind speed in m/s (hover to see current wind gust speed)